• In Russia
  • List of Countries
  • For 7 days
  • Water Temperature
  • Satellite Maps
  • Weather Map
  • Weather Widgets
  • user-avatar
    Login

    Hourly Weather Biatris

    Today, 25 May, Friday

    Time Temperature Precipitation Wind Pressure Humidity
    00:00 +18°C° 0 mm 1 mps 655 mmHg 59%
    01:00 +16°C° 0 mm 1 mps 654 mmHg 63%
    02:00 +15°C° 0 mm 1 mps 654 mmHg 67%
    03:00 +14°C° 0 mm 1 mps 654 mmHg 70%
    04:00 +14°C° 0 mm 1 mps 654 mmHg 72%
    05:00 +14°C° 0 mm 1 mps 654 mmHg 74%
    06:00 +15°C° 0 mm 1 mps 654 mmHg 69%
    07:00 +16°C° 0 mm 1 mps 655 mmHg 63%
    08:00 +19°C° 0 mm 1 mps 656 mmHg 58%
    09:00 +22°C° 0 mm 1 mps 656 mmHg 49%
    10:00 +25°C° 0 mm 1 mps 657 mmHg 41%
    11:00 +27°C° 0 mm 1 mps 658 mmHg 32%
    12:00 +28°C° 0 mm 1 mps 657 mmHg 30%
    13:00 +28°C° 0 mm 1 mps 657 mmHg 28%
    14:00 +29°C° 0 mm 1 mps 656 mmHg 27%
    15:00 +27°C° 0 mm 1 mps 655 mmHg 30%
    16:00 +26°C° 0 mm 1 mps 655 mmHg 33%
    17:00 +24°C° 0 mm 1 mps 654 mmHg 36%
    18:00 +23°C° 0 mm 1 mps 654 mmHg 39%
    19:00 +22°C° 0 mm 1 mps 655 mmHg 41%
    20:00 +20°C° 0 mm 1 mps 655 mmHg 44%
    21:00 +20°C° 0 mm 1 mps 655 mmHg 47%
    22:00 +19°C° 0 mm 1 mps 655 mmHg 49%
    23:00 +18°C° 0 mm 1 mps 655 mmHg 52%

    Tomorrow, 26 May, Saturday

    Time Temperature Precipitation Wind Pressure Humidity
    00:00 +16°C° 0 mm 1 mps 654 mmHg 54%
    01:00 +16°C° 0 mm 1 mps 654 mmHg 56%
    02:00 +15°C° 0 mm 1 mps 654 mmHg 58%
    03:00 +15°C° 0 mm 1 mps 654 mmHg 62%
    04:00 +15°C° 0 mm 1 mps 654 mmHg 65%
    05:00 +14°C° 0 mm 1 mps 654 mmHg 69%
    06:00 +16°C° 0 mm 2 mps 655 mmHg 68%
    07:00 +17°C° 0 mm 2 mps 655 mmHg 66%
    08:00 +18°C° 0 mm 2 mps 656 mmHg 65%
    09:00 +21°C° 0 mm 2 mps 657 mmHg 55%
    10:00 +24°C° 0 mm 2 mps 657 mmHg 46%
    11:00 +26°C° 0 mm 2 mps 658 mmHg 36%
    12:00 +27°C° 0 mm 2 mps 657 mmHg 34%
    13:00 +27°C° 0 mm 2 mps 657 mmHg 31%
    14:00 +28°C° 0 mm 2 mps 656 mmHg 29%
    15:00 +27°C° 0 mm 2 mps 656 mmHg 33%
    16:00 +25°C° 0 mm 2 mps 656 mmHg 38%
    17:00 +24°C° 0 mm 2 mps 655 mmHg 42%
    18:00 +21°C° 0.3 mm 2 mps 655 mmHg 49%
    19:00 +20°C° 0.3 mm 2 mps 655 mmHg 56%
    20:00 +18°C° 0.3 mm 2 mps 655 mmHg 62%
    21:00 +18°C° 0 mm 2 mps 656 mmHg 65%
    22:00 +19°C° 0 mm 1 mps 656 mmHg 68%
    23:00 +18°C° 0 mm 1 mps 656 mmHg 71%

    Day after tomorrow, 27 May, Sunday

    Time Temperature Precipitation Wind Pressure Humidity
    00:00 +18°C° 0 mm 1 mps 656 mmHg 74%
    01:00 +16°C° 0 mm 1 mps 655 mmHg 77%
    02:00 +16°C° 0 mm 1 mps 655 mmHg 80%
    03:00 +15°C° 0 mm 1 mps 655 mmHg 82%
    04:00 +15°C° 0 mm 1 mps 655 mmHg 84%
    05:00 +15°C° 0 mm 1 mps 655 mmHg 86%
    06:00 +16°C° 0 mm 2 mps 656 mmHg 81%
    07:00 +17°C° 0 mm 2 mps 657 mmHg 76%
    08:00 +18°C° 0 mm 2 mps 657 mmHg 71%
    09:00 +20°C° 0.1 mm 2 mps 658 mmHg 62%
    10:00 +24°C° 0.1 mm 2 mps 658 mmHg 52%
    11:00 +26°C° 0.1 mm 2 mps 659 mmHg 43%
    12:00 +26°C° 0 mm 2 mps 658 mmHg 42%
    13:00 +25°C° 0 mm 2 mps 657 mmHg 42%
    14:00 +25°C° 0 mm 1 mps 657 mmHg 41%
    15:00 +24°C° 0 mm 1 mps 657 mmHg 44%
    16:00 +23°C° 0 mm 1 mps 656 mmHg 47%
    17:00 +23°C° 0 mm 1 mps 656 mmHg 51%
    18:00 +22°C° 0 mm 1 mps 656 mmHg 53%
    19:00 +21°C° 0 mm 1 mps 657 mmHg 56%
    20:00 +19°C° 0 mm 2 mps 657 mmHg 59%
    21:00 +18°C° 0 mm 2 mps 657 mmHg 61%
    22:00 +17°C° 0 mm 2 mps 657 mmHg 63%
    23:00 +16°C° 0 mm 2 mps 657 mmHg 66%

    28 May, Monday

    Time Temperature Precipitation Wind Pressure Humidity
    00:00 +16°C° 0 mm 2 mps 657 mmHg 68%
    01:00 +15°C° 0 mm 1 mps 656 mmHg 70%
    02:00 +15°C° 0 mm 1 mps 656 mmHg 72%
    03:00 +14°C° 0 mm 1 mps 656 mmHg 74%
    04:00 +14°C° 0 mm 1 mps 656 mmHg 75%
    05:00 +14°C° 0 mm 1 mps 656 mmHg 76%
    06:00 +15°C° 0 mm 1 mps 657 mmHg 71%
    07:00 +16°C° 0 mm 2 mps 657 mmHg 66%
    08:00 +18°C° 0 mm 2 mps 658 mmHg 61%
    09:00 +20°C° 0 mm 2 mps 658 mmHg 50%
    10:00 +23°C° 0 mm 2 mps 659 mmHg 39%
    11:00 +26°C° 0 mm 2 mps 659 mmHg 28%
    12:00 +27°C° 0 mm 2 mps 659 mmHg 27%
    13:00 +27°C° 0 mm 2 mps 658 mmHg 25%
    14:00 +28°C° 0 mm 2 mps 657 mmHg 23%
    15:00 +27°C° 0 mm 2 mps 657 mmHg 26%
    16:00 +25°C° 0 mm 2 mps 656 mmHg 29%
    17:00 +24°C° 0 mm 1 mps 656 mmHg 32%
    18:00 +21°C° 0 mm 2 mps 656 mmHg 36%
    19:00 +19°C° 0 mm 2 mps 656 mmHg 40%
    20:00 +17°C° 0 mm 2 mps 656 mmHg 44%
    21:00 +17°C° 0 mm 2 mps 656 mmHg 46%
    22:00 +16°C° 0 mm 2 mps 656 mmHg 48%
    23:00 +15°C° 0 mm 2 mps 656 mmHg 50%

    29 May, Tuesday

    Time Temperature Precipitation Wind Pressure Humidity
    00:00 +15°C° 0 mm 2 mps 655 mmHg 52%
    01:00 +14°C° 0 mm 2 mps 655 mmHg 54%
    02:00 +14°C° 0 mm 1 mps 655 mmHg 56%
    03:00 +13°C° 0 mm 1 mps 655 mmHg 57%
    04:00 +13°C° 0 mm 1 mps 655 mmHg 58%
    05:00 +13°C° 0 mm 1 mps 655 mmHg 59%
    06:00 +14°C° 0 mm 1 mps 655 mmHg 55%
    07:00 +16°C° 0 mm 1 mps 656 mmHg 51%
    08:00 +19°C° 0 mm 1 mps 657 mmHg 47%
    09:00 +21°C° 0 mm 1 mps 657 mmHg 41%
    10:00 +24°C° 0 mm 1 mps 658 mmHg 36%
    11:00 +27°C° 0 mm 1 mps 658 mmHg 30%
    12:00 +28°C° 0 mm 1 mps 658 mmHg 28%
    13:00 +28°C° 0 mm 1 mps 657 mmHg 26%
    14:00 +29°C° 0 mm 1 mps 656 mmHg 24%
    15:00 +27°C° 0 mm 1 mps 656 mmHg 27%
    16:00 +26°C° 0 mm 1 mps 655 mmHg 30%
    17:00 +24°C° 0 mm 1 mps 655 mmHg 33%
    18:00 +22°C° 0 mm 1 mps 654 mmHg 37%
    19:00 +21°C° 0 mm 1 mps 654 mmHg 40%
    20:00 +19°C° 0 mm 1 mps 654 mmHg 44%
    21:00 +18°C° 0 mm 1 mps 654 mmHg 46%
    22:00 +18°C° 0 mm 1 mps 654 mmHg 48%
    23:00 +16°C° 0 mm 1 mps 654 mmHg 51%

    30 May, Wednesday

    Time Temperature Precipitation Wind Pressure Humidity
    00:00 +16°C° 0 mm 1 mps 654 mmHg 52%
    01:00 +15°C° 0 mm 1 mps 654 mmHg 54%
    02:00 +15°C° 0 mm 1 mps 653 mmHg 56%
    03:00 +14°C° 0 mm 1 mps 653 mmHg 58%
    04:00 +14°C° 0 mm 1 mps 654 mmHg 59%
    05:00 +14°C° 0 mm 1 mps 654 mmHg 60%
    06:00 +15°C° 0 mm 1 mps 655 mmHg 56%
    07:00 +18°C° 0 mm 1 mps 655 mmHg 52%
    08:00 +19°C° 0 mm 1 mps 656 mmHg 48%
    09:00 +22°C° 0 mm 1 mps 656 mmHg 41%
    10:00 +25°C° 0 mm 1 mps 657 mmHg 34%
    11:00 +28°C° 0 mm 1 mps 657 mmHg 27%
    12:00 +28°C° 0 mm 2 mps 657 mmHg 25%
    13:00 +28°C° 0 mm 2 mps 656 mmHg 23%
    14:00 +29°C° 0 mm 3 mps 655 mmHg 21%
    15:00 +28°C° 0 mm 3 mps 655 mmHg 24%
    16:00 +26°C° 0 mm 3 mps 655 mmHg 27%
    17:00 +25°C° 0 mm 2 mps 654 mmHg 30%
    18:00 +22°C° 0 mm 3 mps 655 mmHg 32%
    19:00 +20°C° 0 mm 3 mps 655 mmHg 34%
    20:00 +19°C° 0 mm 3 mps 655 mmHg 37%
    21:00 +18°C° 0 mm 3 mps 655 mmHg 39%
    22:00 +18°C° 0 mm 3 mps 655 mmHg 42%
    23:00 +17°C° 0 mm 3 mps 655 mmHg 44%
    Show more